Kissimmee, FL

3:17 PM EST on December 05, 2019 (GMT -0500)
Kissimmee Municipal

Weather History for KISM - November, 2019

Change the Weather History Date:

Tuesday, November 12, 2019

  Actual Average Record
Temperature  
Mean Temperature 72 °F -  
Max Temperature 82 °F 78 °F 92 °F (1961)
Min Temperature 62 °F 55 °F 42 °F (1968)
Cooling Degree Days 7    
Growing Degree Days 22 (Base 50)    
Moisture  
Dew Point 64 °F    
Average Humidity 80    
Maximum Humidity 100    
Minimum Humidity 46    
Precipitation  
Precipitation 0.00 in - - ()
Sea Level Pressure  
Sea Level Pressure 29.97 in    
Wind  
Wind Speed 3 mph (West)    
Max Wind Speed 13 mph    
Max Gust Speed 17 mph    
Visibility 9 miles    
Events Fog , Rain    
Averages and records for this station are not official NWS values.
T = Trace of Precipitation, MM = Missing Value Source: NWS Daily Summary

Daily Weather History Graph

Daily Weather History Graph

Search for Another Location

Airport or City:

Astronomy

Nov. 12, 2019 Rise Set
Actual Time 6:45 AM EST 5:34 PM EST
Civil Twilight 6:20 AM EST 5:58 PM EST
Nautical Twilight 5:52 AM EST 6:27 PM EST
Astronomical Twilight 5:24 AM EST 6:55 PM EST
Moon 5:58 PM EST (11/12) 6:39 AM EST (11/12)
Length of Visible Light 11h 38m
Length of Day
10h 48m
Full, 100% of the Moon is Illuminated
Nov 12
Full
Nov 19
Last Quarter
Nov 26
New
Dec 4
First Quarter
Dec 12
Full

Hourly Weather History & Observations

Time (EST) Temp. Heat Index Dew Point Humidity Pressure Visibility Wind Dir Wind Speed Gust Speed Precip Events Conditions
12:56 AM 66.9 °F - 66.0 °F 97% 30.03 in 10.0 mi Calm Calm - N/A   Overcast
1:56 AM 66.9 °F - 66.0 °F 97% 30.02 in 10.0 mi Calm Calm - N/A   Clear
2:56 AM 66.0 °F - 64.9 °F 96% 30.00 in 10.0 mi Calm Calm - N/A   Mostly Cloudy
4:56 AM 63.0 °F - 62.1 °F 97% 29.97 in 10.0 mi Calm Calm - N/A   Clear
5:56 AM 63.0 °F - 63.0 °F 100% 29.97 in 10.0 mi Calm Calm - N/A   Clear
6:56 AM 62.1 °F - 62.1 °F 100% 29.98 in 10.0 mi Calm Calm - N/A   Clear
7:03 AM 62.6 °F - 62.6 °F 100% 29.98 in 2.5 mi Calm Calm - N/A   Clear
7:16 AM 62.6 °F - 62.6 °F 100% 29.98 in 0.2 mi Calm Calm - N/A Fog Fog
7:56 AM 64.0 °F - 64.0 °F 100% 29.99 in 0.2 mi Calm Calm - N/A Fog Fog
8:27 AM 66.2 °F - 66.2 °F 100% 30.00 in 10.0 mi Calm Calm - N/A   Clear
8:56 AM 70.0 °F - 69.1 °F 97% 30.01 in 10.0 mi WSW 4.6 mph - N/A   Clear
9:56 AM 77.0 °F - 66.0 °F 69% 30.01 in 10.0 mi WSW 5.8 mph - N/A   Clear
10:56 AM 80.1 °F 81.2 °F 62.1 °F 54% 29.99 in 10.0 mi SW 6.9 mph - N/A   Clear
11:56 AM 81.0 °F 81.6 °F 60.1 °F 49% 29.96 in 10.0 mi SW 10.4 mph - N/A   Clear
12:56 PM 82.9 °F 83.2 °F 60.1 °F 46% 29.94 in 10.0 mi West 5.8 mph - N/A   Clear
1:56 PM 82.9 °F 83.3 °F 61.0 °F 47% 29.91 in 10.0 mi WSW 11.5 mph - N/A   Partly Cloudy
2:56 PM 82.9 °F 83.7 °F 62.1 °F 49% 29.89 in 10.0 mi WSW 10.4 mph - N/A   Mostly Cloudy
3:56 PM 82.9 °F 83.7 °F 62.1 °F 49% 29.88 in 10.0 mi West 9.2 mph - N/A   Scattered Clouds
4:56 PM 80.1 °F 81.2 °F 62.1 °F 54% 29.90 in 10.0 mi WNW 9.2 mph - N/A   Clear
5:56 PM 75.9 °F - 63.0 °F 64% 29.91 in 10.0 mi WNW 6.9 mph - N/A   Clear
6:56 PM 73.0 °F - 64.0 °F 73% 29.93 in 10.0 mi NW 5.8 mph - N/A   Clear
7:56 PM 72.0 °F - 64.9 °F 78% 29.94 in 10.0 mi WNW 4.6 mph - N/A   Clear
8:56 PM 73.0 °F - 66.9 °F 81% 29.96 in 10.0 mi NNW 5.8 mph - N/A   Clear
9:33 PM 71.6 °F - 68.0 °F 88% 29.97 in 7.0 mi WNW 9.2 mph - N/A Rain Light Rain
9:56 PM 70.0 °F - 69.1 °F 97% 29.98 in 5.0 mi West 5.8 mph - N/A Rain Light Rain
10:56 PM 70.0 °F - 68.0 °F 93% 29.98 in 10.0 mi North 6.9 mph - N/A   Overcast
11:56 PM 68.0 °F - 64.9 °F 90% 29.99 in 10.0 mi NNE 12.7 mph 17.3 mph N/A   Overcast